Hourly Weather Chaikivshchyna

Today, 16 June, Wednesday

Time Temperature Precipitation Wind Pressure Humidity
00:00 +18°C° 0.3 mm 3 mps 747 mmHg 93%
01:00 +18°C° 0.3 mm 3 mps 747 mmHg 93%
02:00 +17°C° 0.3 mm 3 mps 747 mmHg 94%
03:00 +17°C° 0.6 mm 3 mps 747 mmHg 94%
04:00 +17°C° 0.6 mm 4 mps 747 mmHg 94%
05:00 +17°C° 0.6 mm 4 mps 747 mmHg 94%
06:00 +19°C° 0.3 mm 4 mps 748 mmHg 90%
07:00 +20°C° 0.3 mm 4 mps 748 mmHg 86%
08:00 +22°C° 0.3 mm 4 mps 748 mmHg 82%
09:00 +22°C° 1.5 mm 4 mps 748 mmHg 80%
10:00 +23°C° 1.5 mm 4 mps 748 mmHg 77%
11:00 +25°C° 1.5 mm 4 mps 748 mmHg 75%
12:00 +25°C° 1.4 mm 4 mps 748 mmHg 76%
13:00 +23°C° 1.4 mm 4 mps 749 mmHg 77%
14:00 +24°C° 1.4 mm 3 mps 749 mmHg 78%
15:00 +24°C° 0.8 mm 3 mps 749 mmHg 79%
16:00 +23°C° 0.8 mm 2 mps 749 mmHg 79%
17:00 +23°C° 0.8 mm 1 mps 749 mmHg 79%
18:00 +22°C° 0.6 mm 1 mps 749 mmHg 82%
19:00 +21°C° 0.6 mm 2 mps 749 mmHg 85%
20:00 +20°C° 0.6 mm 2 mps 750 mmHg 88%
21:00 +19°C° 0.2 mm 2 mps 750 mmHg 89%
22:00 +18°C° 0.2 mm 2 mps 750 mmHg 90%
23:00 +18°C° 0.2 mm 2 mps 750 mmHg 91%

Tomorrow, 17 June, Thursday

Time Temperature Precipitation Wind Pressure Humidity
00:00 +18°C° 0 mm 2 mps 750 mmHg 92%
01:00 +17°C° 0 mm 3 mps 750 mmHg 93%
02:00 +17°C° 0 mm 3 mps 750 mmHg 95%
03:00 +17°C° 0 mm 3 mps 751 mmHg 95%
04:00 +17°C° 0 mm 4 mps 751 mmHg 95%
05:00 +17°C° 0 mm 4 mps 751 mmHg 96%
06:00 +19°C° 0 mm 4 mps 751 mmHg 92%
07:00 +20°C° 0 mm 5 mps 752 mmHg 88%
08:00 +22°C° 0 mm 5 mps 752 mmHg 85%
09:00 +23°C° 0.1 mm 6 mps 752 mmHg 80%
10:00 +24°C° 0.1 mm 6 mps 753 mmHg 75%
11:00 +26°C° 0.1 mm 6 mps 753 mmHg 71%
12:00 +26°C° 0.4 mm 6 mps 753 mmHg 72%
13:00 +26°C° 0.4 mm 6 mps 753 mmHg 73%
14:00 +26°C° 0.4 mm 5 mps 753 mmHg 74%
15:00 +26°C° 0.4 mm 6 mps 753 mmHg 75%
16:00 +26°C° 0.4 mm 6 mps 754 mmHg 77%
17:00 +24°C° 0.4 mm 6 mps 754 mmHg 79%
18:00 +23°C° 0.1 mm 6 mps 754 mmHg 82%
19:00 +22°C° 0.1 mm 6 mps 754 mmHg 85%
20:00 +21°C° 0.1 mm 5 mps 755 mmHg 88%
21:00 +20°C° 0 mm 5 mps 755 mmHg 88%
22:00 +19°C° 0 mm 5 mps 755 mmHg 89%
23:00 +17°C° 0 mm 5 mps 755 mmHg 89%

Day after tomorrow, 18 June, Friday

Time Temperature Precipitation Wind Pressure Humidity
00:00 +17°C° 0 mm 5 mps 755 mmHg 90%
01:00 +16°C° 0 mm 5 mps 755 mmHg 91%
02:00 +16°C° 0 mm 5 mps 755 mmHg 91%
03:00 +16°C° 0 mm 5 mps 755 mmHg 90%
04:00 +15°C° 0 mm 5 mps 756 mmHg 89%
05:00 +15°C° 0 mm 5 mps 756 mmHg 88%
06:00 +16°C° 0 mm 5 mps 756 mmHg 83%
07:00 +19°C° 0 mm 6 mps 756 mmHg 79%
08:00 +20°C° 0 mm 6 mps 757 mmHg 74%
09:00 +21°C° 0 mm 6 mps 757 mmHg 71%
10:00 +22°C° 0 mm 6 mps 757 mmHg 68%
11:00 +23°C° 0 mm 6 mps 757 mmHg 65%
12:00 +24°C° 0 mm 6 mps 757 mmHg 64%
13:00 +24°C° 0 mm 6 mps 757 mmHg 63%
14:00 +26°C° 0 mm 6 mps 757 mmHg 62%
15:00 +24°C° 0 mm 6 mps 757 mmHg 65%
16:00 +24°C° 0 mm 6 mps 757 mmHg 68%
17:00 +24°C° 0 mm 6 mps 757 mmHg 71%
18:00 +22°C° 0 mm 5 mps 757 mmHg 76%
19:00 +20°C° 0 mm 4 mps 757 mmHg 82%
20:00 +19°C° 0 mm 4 mps 757 mmHg 87%
21:00 +18°C° 0 mm 4 mps 757 mmHg 89%
22:00 +17°C° 0 mm 4 mps 757 mmHg 90%
23:00 +17°C° 0 mm 4 mps 757 mmHg 92%

19 June, Saturday

Time Temperature Precipitation Wind Pressure Humidity
00:00 +15°C° 0 mm 4 mps 757 mmHg 93%
01:00 +15°C° 0 mm 4 mps 757 mmHg 94%
02:00 +14°C° 0 mm 4 mps 757 mmHg 95%
03:00 +15°C° 0 mm 4 mps 757 mmHg 94%
04:00 +15°C° 0 mm 4 mps 758 mmHg 93%
05:00 +15°C° 0 mm 4 mps 758 mmHg 92%
06:00 +18°C° 0 mm 4 mps 758 mmHg 87%
07:00 +19°C° 0 mm 5 mps 758 mmHg 82%
08:00 +21°C° 0 mm 5 mps 758 mmHg 77%
09:00 +22°C° 0 mm 5 mps 758 mmHg 72%
10:00 +23°C° 0 mm 6 mps 758 mmHg 67%
11:00 +26°C° 0 mm 6 mps 758 mmHg 63%
12:00 +26°C° 0 mm 6 mps 758 mmHg 62%
13:00 +26°C° 0 mm 6 mps 757 mmHg 60%
14:00 +27°C° 0 mm 6 mps 757 mmHg 59%
15:00 +27°C° 0 mm 5 mps 757 mmHg 62%
16:00 +26°C° 0 mm 5 mps 757 mmHg 66%
17:00 +26°C° 0 mm 5 mps 757 mmHg 70%
18:00 +23°C° 0 mm 4 mps 757 mmHg 75%
19:00 +22°C° 0 mm 4 mps 757 mmHg 81%
20:00 +20°C° 0 mm 3 mps 757 mmHg 86%
21:00 +19°C° 0 mm 3 mps 757 mmHg 88%
22:00 +19°C° 0 mm 3 mps 757 mmHg 90%
23:00 +18°C° 0 mm 3 mps 757 mmHg 92%

20 June, Sunday

Time Temperature Precipitation Wind Pressure Humidity
00:00 +17°C° 0 mm 3 mps 757 mmHg 91%
01:00 +17°C° 0 mm 3 mps 757 mmHg 91%
02:00 +16°C° 0 mm 3 mps 757 mmHg 91%
03:00 +17°C° 0 mm 3 mps 757 mmHg 90%
04:00 +17°C° 0 mm 4 mps 757 mmHg 89%
05:00 +17°C° 0 mm 4 mps 757 mmHg 88%
06:00 +18°C° 0 mm 4 mps 757 mmHg 82%
07:00 +20°C° 0 mm 5 mps 757 mmHg 77%
08:00 +22°C° 0 mm 5 mps 757 mmHg 71%
09:00 +23°C° 0 mm 5 mps 757 mmHg 67%
10:00 +25°C° 0 mm 5 mps 757 mmHg 62%
11:00 +26°C° 0 mm 5 mps 757 mmHg 58%
12:00 +27°C° 0 mm 6 mps 756 mmHg 57%
13:00 +27°C° 0 mm 6 mps 756 mmHg 57%
14:00 +27°C° 0 mm 6 mps 756 mmHg 56%
15:00 +27°C° 0 mm 5 mps 756 mmHg 59%
16:00 +27°C° 0 mm 5 mps 755 mmHg 63%
17:00 +26°C° 0 mm 5 mps 755 mmHg 67%
18:00 +25°C° 0 mm 4 mps 755 mmHg 73%
19:00 +22°C° 0 mm 4 mps 755 mmHg 79%
20:00 +21°C° 0 mm 4 mps 755 mmHg 85%
21:00 +20°C° 0 mm 4 mps 755 mmHg 86%
22:00 +20°C° 0 mm 4 mps 755 mmHg 88%
23:00 +19°C° 0 mm 4 mps 755 mmHg 89%

21 June, Monday

Time Temperature Precipitation Wind Pressure Humidity
00:00 +18°C° 0 mm 4 mps 754 mmHg 91%
01:00 +18°C° 0 mm 4 mps 754 mmHg 92%
02:00 +17°C° 0 mm 4 mps 754 mmHg 93%
03:00 +18°C° 0 mm 4 mps 754 mmHg 91%
04:00 +18°C° 0 mm 4 mps 754 mmHg 89%
05:00 +18°C° 0 mm 4 mps 753 mmHg 88%
06:00 +20°C° 0 mm 5 mps 753 mmHg 82%
07:00 +22°C° 0 mm 5 mps 753 mmHg 77%
08:00 +23°C° 0 mm 6 mps 753 mmHg 71%
09:00 +24°C° 0 mm 6 mps 753 mmHg 67%
10:00 +27°C° 0 mm 6 mps 753 mmHg 63%
11:00 +28°C° 0 mm 7 mps 752 mmHg 58%
12:00 +29°C° 0 mm 7 mps 752 mmHg 59%
13:00 +29°C° 0 mm 7 mps 752 mmHg 60%
14:00 +30°C° 0 mm 7 mps 752 mmHg 61%
15:00 +29°C° 0 mm 6 mps 751 mmHg 62%
16:00 +29°C° 0 mm 6 mps 751 mmHg 64%
17:00 +29°C° 0 mm 6 mps 751 mmHg 66%
18:00 +27°C° 0 mm 5 mps 751 mmHg 70%
19:00 +26°C° 0 mm 5 mps 751 mmHg 75%
20:00 +23°C° 0 mm 4 mps 751 mmHg 80%
21:00 +23°C° 0 mm 4 mps 751 mmHg 80%
22:00 +23°C° 0 mm 4 mps 751 mmHg 81%
23:00 +22°C° 0 mm 4 mps 751 mmHg 82%
Show more

We Need Your Consent

Meteoprog and our Service Providers may store and access personal data such as cookies, device identifiers or other similar technologies on your device and process such data to personalise content and ads, as well as provide social media features and to analyse the traffic.

  • Store and/or access information on your device

    Cookies, device identifiers or other information can be stored or accessed on your device for the purposes indicated above.

  • Personalised ads and content, ad and content measurement, audience insights, and products development

    Ads and content can be personalised based on a profile. More data can be added to better personalise ads and content. Ad and content performance can be measured. Insights about the audience who saw the ads and content can be derived. Such data can be used to develop or improve user’s experience, systems and software.

By clicking ‘I Agree’ you will allow the use of indicated cookies, device identifiers, web beacons or other similar technologies. Your settings can be changed in the browser on your device.

For certain purposes, legitimate interests may be relied on, rather than consent. You can read more about this in our Privacy and Cookie Policy.